SM6PGP-2 Weather Reports


Display with metric or nautical units.
time (UTC)temp
F
wind
direction
speed
MPH
gust
MPH
rain 1hr
in
rain 24hr
in
rain mn
in
humidity
%
barometer
mb
20260904171759 56 225 4.0 5.0 0.00 0.00 0.09 75 995.5
20260904171253 56 225 3.0 3.0 0.00 0.00 0.09 75 995.5
20260904170748 56 225 3.0 3.0 0.00 0.00 0.09 74 995.5
20260904170243 57 211 3.0 5.0 0.00 0.00 0.09 74 995.5
20260904165738 57 225 4.0 5.0 0.00 0.00 0.09 73 995.5
20260904165233 57 225 4.0 5.0 0.00 0.00 0.09 72 995.5
20260904164727 58 225 4.0 6.0 0.00 0.00 0.09 72 995.5
20260904164222 58 252 8.0 10.0 0.00 0.00 0.09 72 995.3
20260904163717 59 256 7.0 8.0 0.00 0.00 0.09 72 995.4
20260904163212 59 225 4.0 7.0 0.00 0.00 0.08 72 995.5
20260904162707 59 261 3.0 6.0 0.00 0.00 0.08 71 995.4
20260904162201 59 225 8.0 9.0 0.00 0.00 0.08 70 995.5
20260904161656 59 283 7.0 11.0 0.00 0.00 0.08 70 995.5
20260904161151 59 234 5.0 14.0 0.00 0.00 0.06 70 995.6
20260904160646 60 261 8.0 12.0 0.00 0.00 0.06 69 995.7
20260904160141 60 247 7.0 9.0 0.00 0.00 0.06 68 995.7
20260904155635 61 256 4.0 10.0 0.00 0.00 0.06 67 995.6
20260904155130 62 225 10.0 12.0 0.00 0.00 0.06 66 995.6
20260904154625 63 252 7.0 13.0 0.00 0.00 0.06 66 995.7
20260904154120 63 225 9.0 13.0 0.00 0.00 0.06 68 995.6
20260904153615 63 261 5.0 10.0 0.00 0.00 0.06 69 995.6
20260904153109 62 270 6.0 10.0 0.00 0.00 0.06 69 995.5
20260904152604 62 270 7.0 12.0 0.00 0.00 0.06 66 995.6
20260904152059 64 238 6.0 8.0 0.00 0.00 0.06 66 995.6
20260904151554 64 36 1.0 6.0 0.00 0.00 0.06 68 995.7
20260904151049 63 342 4.0 6.0 0.00 0.00 0.06 69 995.7
20260904150543 63 324 5.0 7.0 0.00 0.00 0.06 68 995.7
20260904150038 63 297 5.0 11.0 0.00 0.00 0.06 69 995.7
20260904145533 63 306 6.0 8.0 0.00 0.00 0.06 69 995.8
20260904145028 63 252 7.0 8.0 0.00 0.00 0.06 71 995.6
20260904144523 62 252 5.0 9.0 0.00 0.00 0.06 71 995.6
20260904144017 62 243 8.0 11.0 0.00 0.00 0.06 73 995.7
20260904143512 62 328 2.0 9.0 0.00 0.00 0.06 75 995.9
20260904143007 60 270 8.0 8.0 0.00 0.00 0.06 75 995.9
20260904142502 59 315 6.0 9.0 0.00 0.00 0.06 74 995.9
20260904141957 59 238 3.0 12.0 0.00 0.00 0.06 74 995.9
20260904141451 60 247 10.0 11.0 0.00 0.00 0.06 74 996.0
20260904140946 60 270 7.0 8.0 0.00 0.00 0.05 73 996.0
20260904140441 60 225 5.0 9.0 0.00 0.00 0.05 73 996.1
20260904135936 60 229 5.0 11.0 0.00 0.00 0.05 73 996.2
20260904135431 60 270 2.0 12.0 0.00 0.00 0.05 73 996.2
20260904134925 60 270 7.0 10.0 0.00 0.00 0.05 74 996.1
20260904134420 60 171 3.0 10.0 0.00 0.00 0.05 73 996.3
20260904133915 59 247 5.0 9.0 0.00 0.00 0.05 74 996.3
20260904133410 59 252 6.0 13.0 0.00 0.00 0.05 73 996.2
20260904132905 59 252 11.0 11.0 0.00 0.00 0.00 73 996.3
20260904132359 59 270 6.0 14.0 0.00 0.00 0.00 72 996.3
20260904131854 59 270 12.0 14.0 0.00 0.00 0.00 72 996.4
20260904131349 59 243 12.0 12.0 0.00 0.00 0.00 73 996.5
20260904130844 59 265 14.0 14.0 0.00 0.00 0.00 73 996.4
20260904130339 59 281 7.0 13.0 0.00 0.00 0.00 73 996.5
20260904125833 59 238 9.0 13.0 0.00 0.00 0.00 72 996.6
20260904125328 59 234 8.0 15.0 0.00 0.00 0.00 73 996.6
20260904124823 59 234 9.0 14.0 0.00 0.00 0.00 73 996.5
20260904124318 59 252 10.0 10.0 0.00 0.00 0.00 74 996.5
20260904123813 59 261 7.0 11.0 0.00 0.00 0.00 74 996.5
20260904123307 59 252 7.0 11.0 0.00 0.00 0.00 75 996.5
20260904122802 59 234 6.0 11.0 0.00 0.00 0.00 76 996.6
20260904122257 59 225 6.0 8.0 0.00 0.00 0.00 76 996.9
20260904121752 59 225 6.0 9.0 0.00 0.00 0.00 76 996.9
20260904121247 59 238 10.0 12.0 0.00 0.00 0.00 76 996.9
20260904120742 59 247 5.0 13.0 0.00 0.00 0.00 76 997.0
20260904120236 60 243 13.0 13.0 0.00 0.00 0.00 76 997.0
20260904115731 60 225 7.0 8.0 0.00 0.00 0.00 77 997.0
20260904115226 59 225 13.0 15.0 0.00 0.00 0.00 76 997.0
20260904114721 59 238 11.0 14.0 0.00 0.00 0.00 76 997.1
20260904114216 59 229 5.0 12.0 0.00 0.00 0.00 77 997.2
20260904113711 59 238 6.0 12.0 0.00 0.00 0.00 77 997.2
20260904113205 59 225 9.0 14.0 0.00 0.00 0.00 77 997.3
20260904112700 59 225 13.0 18.0 0.00 0.00 0.00 77 997.3
20260904112155 59 225 10.0 13.0 0.00 0.00 0.00 78 997.2
20260904111650 59 211 9.0 13.0 0.00 0.00 0.00 79 997.3
20260904111144 59 243 8.0 15.0 0.00 0.00 0.00 79 997.4
20260904110639 58 243 19.0 19.0 0.00 0.00 0.00 79 997.4
20260904110134 58 225 17.0 19.0 0.00 0.00 0.00 80 997.4
20260904105629 59 229 12.0 16.0 0.00 0.00 0.00 79 997.5
20260904105124 59 238 9.0 10.0 0.00 0.00 0.00 80 997.4
20260904104618 59 292 2.0 11.0 0.00 0.00 0.00 80 997.4
20260904104113 59 265 4.0 6.0 0.00 0.00 0.00 80 997.5
20260904103608 59 265 7.0 11.0 0.00 0.00 0.00 80 997.6
20260904103103 59 238 6.0 10.0 0.00 0.00 0.00 80 997.7
20260904102558 58 225 10.0 16.0 0.00 0.00 0.00 80 997.9
20260904102052 58 234 8.0 14.0 0.00 0.00 0.00 80 998.0
20260904101547 58 225 6.0 8.0 0.00 0.00 0.00 80 998.0
20260904101042 58 274 6.0 12.0 0.00 0.00 0.00 80 998.1
20260904100537 58 261 6.0 12.0 0.00 0.00 0.00 80 997.9
20260904100032 58 297 3.0 9.0 0.00 0.00 0.00 80 998.0
20260904095526 58 252 6.0 8.0 0.00 0.00 0.00 79 998.1
20260904095021 57 225 4.0 17.0 0.00 0.00 0.00 78 998.0
20260904094516 57 225 12.0 12.0 0.00 0.00 0.00 77 998.2
20260904094011 57 247 5.0 15.0 0.00 0.00 0.00 77 998.2
20260904093506 57 225 6.0 12.0 0.00 0.00 0.00 77 998.4
20260904093000 58 31 4.0 9.0 0.00 0.00 0.00 76 998.5
20260904092455 58 265 9.0 14.0 0.00 0.00 0.00 76 998.6
20260904091950 58 243 7.0 15.0 0.00 0.00 0.00 76 998.6
20260904091445 58 261 8.0 13.0 0.00 0.00 0.00 76 998.7
20260904090940 58 225 18.0 23.0 0.00 0.00 0.00 75 998.7
20260904090434 59 234 21.0 21.0 0.00 0.00 0.00 76 998.7
20260904085929 59 247 16.0 16.0 0.00 0.00 0.00 76 998.7
20260904085424 59 220 12.0 19.0 0.00 0.00 0.00 75 998.7
20260904084919 59 252 10.0 15.0 0.00 0.00 0.00 76 998.6
20260904084414 59 238 14.0 14.0 0.00 0.00 0.00 77 998.8
20260904083908 59 243 6.0 22.0 0.00 0.00 0.00 77 998.7
20260904083403 59 229 13.0 15.0 0.00 0.00 0.00 78 998.7
20260904082858 59 256 18.0 25.0 0.00 0.00 0.00 78 998.6
20260904082353 58 238 14.0 19.0 0.00 0.00 0.00 79 998.7
20260904081848 58 225 16.0 20.0 0.00 0.00 0.24 79 998.8
20260904081343 58 225 14.0 15.0 0.00 0.00 0.24 79 998.9
20260904080837 57 279 15.0 20.0 0.00 0.00 0.24 79 998.7
20260904080332 57 225 11.0 18.0 0.00 0.00 0.24 79 998.8
20260904075827 57 243 20.0 20.0 0.00 0.00 0.24 79 998.8
20260904075322 57 243 12.0 18.0 0.00 0.00 0.24 79 998.8
20260904074816 57 256 9.0 18.0 0.00 0.00 0.24 78 998.8
20260904074311 57 225 11.0 16.0 0.00 0.00 0.24 77 998.9
20260904073806 57 247 14.0 16.0 0.00 0.00 0.24 77 999.0
20260904073301 58 225 17.0 19.0 0.00 0.00 0.24 76 998.9
20260904072756 58 261 13.0 17.0 0.00 0.00 0.24 76 999.0
20260904072251 58 243 6.0 17.0 0.00 0.00 0.24 76 999.2
20260904071745 58 243 8.0 9.0 0.00 0.00 0.24 76 999.2
20260904071240 58 225 9.0 9.0 0.00 0.00 0.24 76 999.1
20260904070735 58 247 15.0 18.0 0.00 0.00 0.24 76 999.1
20260904070230 58 225 5.0 15.0 0.00 0.00 0.24 76 999.2
20260904065725 58 247 14.0 18.0 0.00 0.00 0.24 77 999.3
20260904065219 58 252 8.0 18.0 0.00 0.00 0.24 76 999.2
20260904064714 58 234 7.0 14.0 0.00 0.00 0.24 76 999.3
20260904064209 58 256 9.0 12.0 0.00 0.00 0.24 76 999.2
20260904063704 58 256 14.0 20.0 0.00 0.00 0.24 76 999.3
20260904063159 58 225 11.0 12.0 0.00 0.00 0.24 76 999.3
20260904062653 58 243 9.0 14.0 0.00 0.00 0.24 76 999.4
20260904062148 58 229 12.0 19.0 0.00 0.00 0.24 76 999.3
20260904061643 58 225 11.0 16.0 0.00 0.00 0.24 75 999.7
20260904061138 58 247 8.0 13.0 0.00 0.00 0.24 75 999.5
20260904060633 58 189 4.0 20.0 0.00 0.00 0.24 74 999.4
20260904060127 58 243 9.0 12.0 0.00 0.00 0.24 74 999.5
20260904055622 58 270 10.0 19.0 0.00 0.00 0.24 74 999.4
20260904055118 58 243 11.0 24.0 0.00 0.00 0.24 75 999.5
20260904054612 57 243 7.0 17.0 0.00 0.00 0.24 75 999.6
20260904054107 57 243 10.0 19.0 0.00 0.00 0.24 76 999.7
20260904053601 57 292 9.0 13.0 0.00 0.00 0.24 76 999.7
20260904053056 57 225 16.0 19.0 0.00 0.00 0.24 75 999.7
20260904052552 57 225 11.0 17.0 0.00 0.00 0.24 76 999.7
20260904052046 57 270 4.0 12.0 0.00 0.00 0.24 75 999.8
20260904051541 57 216 7.0 19.0 0.00 0.00 0.24 75 999.7
20260904051035 57 229 14.0 14.0 0.00 0.00 0.24 75 999.8
20260904050530 57 270 18.0 18.0 0.00 0.00 0.24 76 999.7
20260904050026 57 229 14.0 15.0 0.00 0.00 0.24 75 999.8
20260904045520 57 256 13.0 16.0 0.00 0.00 0.24 75 999.8
20260904045015 57 211 16.0 16.0 0.00 0.00 0.24 75 999.9
20260904044510 57 243 14.0 19.0 0.00 0.00 0.24 75 999.9
20260904044004 57 265 10.0 16.0 0.00 0.00 0.24 75 999.9
20260904043500 57 234 12.0 25.0 0.00 0.00 0.24 75 999.8
20260904042954 57 279 22.0 22.0 0.00 0.00 0.24 75 999.9
20260904042449 57 234 12.0 22.0 0.00 0.00 0.24 75 999.8
20260904041943 57 225 9.0 17.0 0.00 0.00 0.24 75 999.8
20260904041438 57 265 19.0 20.0 0.00 0.00 0.24 75 999.8
20260904040934 57 265 5.0 15.0 0.00 0.00 0.24 76 999.9
20260904040428 57 238 15.0 16.0 0.00 0.00 0.24 76 999.7
20260904035923 57 247 17.0 22.0 0.00 0.00 0.24 76 999.9
20260904035418 57 261 12.0 28.0 0.00 0.00 0.24 76 999.8
20260904034912 57 243 18.0 20.0 0.00 0.00 0.24 77 999.8
20260904034408 57 265 9.0 18.0 0.00 0.00 0.24 77 999.7
20260904033902 57 261 20.0 23.0 0.00 0.00 0.24 77 999.8
20260904033357 57 252 13.0 17.0 0.00 0.00 0.24 77 1000.0
20260904032852 57 270 12.0 22.0 0.00 0.00 0.24 77 999.9
20260904032346 57 234 12.0 20.0 0.00 0.00 0.24 78 1000.0
20260904031842 57 270 8.0 20.0 0.00 0.00 0.24 78 1000.0
20260904031336 57 265 10.0 20.0 0.00 0.00 0.24 78 1000.1
20260904030831 57 256 10.0 17.0 0.00 0.00 0.24 78 1000.3
20260904030326 57 270 12.0 25.0 0.00 0.00 0.24 78 1000.3
20260904025820 57 220 23.0 23.0 0.00 0.00 0.24 79 1000.3
20260904025316 57 225 10.0 18.0 0.00 0.00 0.24 79 1000.3
20260904024810 57 261 8.0 25.0 0.00 0.00 0.24 79 1000.2
20260904024305 57 252 3.0 19.0 0.00 0.00 0.24 78 1000.3
20260904023800 57 225 11.0 28.0 0.00 0.00 0.24 80 1000.2
20260904022750 57 229 14.0 19.0 0.00 0.00 0.24 81 1000.0
20260904022244 57 270 10.0 18.0 0.00 0.00 0.24 81 1000.3
20260904021739 57 238 17.0 22.0 0.00 0.00 0.24 81 1000.3
20260904021234 57 256 14.0 23.0 0.00 0.00 0.24 81 1000.3
20260904020728 57 229 17.0 25.0 0.00 0.00 0.24 82 1000.5
20260904020224 57 261 11.0 24.0 0.00 0.00 0.24 82 1000.5
20260904015718 57 252 8.0 12.0 0.00 0.00 0.24 82 1000.4
20260904015213 57 252 12.0 18.0 0.00 0.00 0.24 83 1000.5
20260904014708 57 265 4.0 16.0 0.00 0.00 0.24 82 1000.4
20260904014202 57 252 10.0 37.0 0.00 0.00 0.24 82 1000.3
20260904013658 57 261 15.0 18.0 0.00 0.00 0.24 83 1000.4
20260904013152 57 270 9.0 18.0 0.00 0.00 0.24 84 1000.4
20260904012647 57 225 11.0 23.0 0.00 0.00 0.24 84 1000.4
20260904012142 57 229 18.0 18.0 0.00 0.00 0.24 85 1000.5
20260904011636 57 243 11.0 20.0 0.00 0.00 0.24 85 1000.4
20260904011132 57 279 11.0 25.0 0.00 0.00 0.24 86 1000.5
20260904010626 57 283 17.0 19.0 0.00 0.00 0.24 86 1000.5
20260904010121 57 256 17.0 17.0 0.00 0.00 0.24 86 1000.6
20260904005616 57 256 10.0 18.0 0.00 0.00 0.24 86 1000.8
20260904005110 57 238 7.0 19.0 0.00 0.00 0.24 87 1000.9
20260904004606 57 225 11.0 17.0 0.00 0.00 0.24 87 1000.9
20260904004100 57 261 12.0 16.0 0.00 0.00 0.24 87 1000.9
20260904003555 57 274 5.0 13.0 0.00 0.00 0.24 87 1000.9
20260904003050 57 274 15.0 25.0 0.00 0.00 0.24 88 1001.0
20260904002544 57 270 10.0 23.0 0.00 0.00 0.24 89 1001.1
20260904002040 57 234 16.0 22.0 0.00 0.00 0.24 90 1001.1
20260904001534 57 247 12.0 19.0 0.00 0.00 0.24 90 1001.0
20260904001029 56 292 12.0 21.0 0.00 0.00 0.24 90 1001.0
20260904000524 56 265 18.0 18.0 0.00 0.00 0.24 91 1001.1
20260904000018 56 256 15.0 21.0 0.00 0.00 0.24 91 1001.1
20260903235514 56 265 13.0 17.0 0.00 0.00 0.24 91 1001.1
20260903235008 57 252 14.0 25.0 0.00 0.00 0.24 91 1000.8
20260903234503 57 256 18.0 27.0 0.00 0.00 0.24 92 1000.7
20260903233958 57 247 15.0 25.0 0.00 0.00 0.24 93 1000.9
20260903233452 56 252 12.0 25.0 0.00 0.00 0.24 93 1000.8
20260903232948 56 279 16.0 24.0 0.00 0.00 0.24 94 1000.8
20260903232442 56 256 9.0 20.0 0.00 0.00 0.24 95 1000.8
20260903231937 56 256 3.0 18.0 0.00 0.00 0.24 95 1001.0
20260903231432 56 225 11.0 27.0 0.00 0.00 0.24 95 1001.1
20260903230927 56 270 12.0 25.0 0.00 0.00 0.24 95 1001.1
20260903230422 57 252 10.0 13.0 0.00 0.00 0.24 95 1001.0
20260903225916 57 256 5.0 19.0 0.00 0.00 0.24 95 1001.0
20260903225411 57 270 13.0 16.0 0.00 0.00 0.24 95 1000.9
20260903224906 57 52 6.0 15.0 0.00 0.00 0.23 95 1000.9
20260903224401 57 261 13.0 13.0 0.00 0.00 0.23 95 1001.0
20260903223856 57 310 6.0 13.0 0.00 0.00 0.23 95 1001.0
20260903223350 57 45 3.0 19.0 0.00 0.00 0.23 95 1001.1
20260903222845 57 270 11.0 24.0 0.00 0.00 0.23 95 1001.2
20260903222340 57 129 6.0 9.0 0.00 0.00 0.23 95 1001.0
20260903221835 57 315 9.0 13.0 0.00 0.00 0.23 96 1001.1
20260903221330 57 297 9.0 26.0 0.00 0.00 0.23 95 1001.1
20260903220824 57 261 16.0 18.0 0.00 0.00 0.23 95 1000.9
20260903220319 57 198 3.0 17.0 0.00 0.00 0.23 95 1001.0
20260903215814 57 236 8.0 23.0 0.00 0.00 0.23 95 1001.1
20260903215309 57 265 15.0 25.0 0.00 0.00 0.23 94 1001.0
20260903214804 57 189 2.0 19.0 0.00 0.00 0.22 95 1001.0
20260903214258 57 238 5.0 17.0 0.00 0.00 0.22 95 1000.9
20260903213753 57 261 19.0 26.0 0.00 0.00 0.22 94 1001.0
20260903213248 57 270 9.0 13.0 0.00 0.00 0.20 94 1001.0
20260903212743 57 270 10.0 11.0 0.00 0.00 0.20 94 1001.1
20260903212238 57 198 7.0 10.0 0.00 0.00 0.20 93 1001.0
20260903211732 57 225 7.0 8.0 0.00 0.00 0.20 93 1001.0
20260903211227 57 135 7.0 7.0 0.00 0.00 0.20 93 1000.9
20260903210722 57 112 1.0 2.0 0.00 0.00 0.19 93 1000.8
20260903210217 57 112 2.0 2.0 0.00 0.00 0.18 94 1000.9
20260903205712 57 90 0.0 0.0 0.00 0.00 0.17 93 1000.9
20260903205206 57 112 0.0 0.0 0.00 0.00 0.17 93 1000.8
20260903204701 57 117 0.0 0.0 0.00 0.00 0.17 93 1001.0
20260903204156 57 135 0.0 0.0 0.00 0.00 0.17 93 1001.2
20260903203651 57 135 0.0 0.0 0.00 0.00 0.17 93 1001.2
20260903203146 57 135 0.0 2.0 0.00 0.00 0.17 92 1001.0
20260903202640 57 135 0.0 0.0 0.00 0.00 0.17 93 1001.2
20260903202135 57 135 0.0 3.0 0.00 0.00 0.17 93 1001.1
20260903201630 57 135 3.0 5.0 0.00 0.00 0.17 92 1001.1
20260903201125 57 157 0.0 1.0 0.00 0.00 0.17 92 1001.2
20260903200620 57 135 0.0 1.0 0.00 0.00 0.17 92 1001.2
20260903200114 57 90 0.0 5.0 0.00 0.00 0.17 92 1001.2
20260903195609 57 90 8.0 9.0 0.00 0.00 0.17 92 1001.2
20260903195104 57 135 2.0 7.0 0.00 0.00 0.17 92 1001.3
20260903194559 57 90 8.0 11.0 0.00 0.00 0.17 91 1001.3
20260903194054 57 90 7.0 7.0 0.00 0.00 0.17 92 1001.2
20260903193548 57 90 4.0 5.0 0.00 0.00 0.17 91 1001.3
20260903193043 57 90 6.0 6.0 0.00 0.00 0.17 91 1001.4
20260903192538 57 90 2.0 2.0 0.00 0.00 0.17 91 1001.5
20260903192033 57 90 2.0 4.0 0.00 0.00 0.17 91 1001.5
20260903191528 57 49 2.0 6.0 0.00 0.00 0.17 91 1001.4
20260903191022 57 45 0.0 3.0 0.00 0.00 0.17 92 1001.6
20260903190517 57 45 0.0 4.0 0.00 0.00 0.17 91 1001.7
20260903190012 57 45 0.0 0.0 0.00 0.00 0.17 91 1001.7
20260903185507 57 45 0.0 0.0 0.00 0.00 0.17 91 1001.8
20260903185002 57 45 0.0 2.0 0.00 0.00 0.17 92 1001.7
20260903184456 57 36 2.0 5.0 0.00 0.00 0.17 91 1001.7
20260903183951 57 45 0.0 2.0 0.00 0.00 0.17 91 1001.6
20260903183446 57 45 0.0 2.0 0.00 0.00 0.17 91 1001.7
20260903182941 57 45 0.0 3.0 0.00 0.00 0.17 91 1001.5
20260903182436 57 45 2.0 4.0 0.00 0.00 0.17 91 1001.9
20260903181930 57 45 0.0 4.0 0.00 0.00 0.17 91 1001.8
20260903181425 57 45 1.0 2.0 0.00 0.00 0.17 91 1001.9
20260903180920 57 45 1.0 5.0 0.00 0.00 0.17 91 1001.8
20260903180415 57 45 0.0 0.0 0.00 0.00 0.17 91 1002.0
20260903175910 57 0 0.0 0.0 0.00 0.00 0.17 91 1001.7
20260903175404 57 45 0.0 5.0 0.00 0.00 0.17 91 1001.7
20260903174859 57 45 0.0 5.0 0.00 0.00 0.17 90 1001.7
20260903174354 57 90 1.0 6.0 0.00 0.00 0.17 90 1001.8
20260903173849 57 45 2.0 9.0 0.00 0.00 0.17 90 1001.8
20260903173344 57 45 5.0 5.0 0.00 0.00 0.17 90 1001.8
20260903172838 57 45 3.0 5.0 0.00 0.00 0.17 90 1001.9
20260903172333 57 90 2.0 7.0 0.00 0.00 0.17 90 1001.9